NJE5JP EGNM-LSZH

Flight info

Callsign NJE5JP
Flight time 1h 33m
Altitude 41000
Route POL DCT MCT DCT LISTO P18 UTUXA N859 HON L15 BIG UL9 KONAN DCT KOK DCT REMBA DCT SUTAL DCT GTQ DCT BAMEV DCT BLM
Aircraft C750/M-SBDE3FGHRWXY/S

Departure

Time 2026-05-01 12:56
Airport Leeds Bradford Airport (EGNM)

Arrival

Time 2026-05-01 14:30
Airport Zürich Airport (LSZH)
Time Latitude Longitude Altitude Speed Heading
2026-05-01 12:39 53.86440 -1.66370 662 ft 0 kts 107°
2026-05-01 12:50 53.86437 -1.66354 662 ft 3 kts 107°
2026-05-01 12:50 53.86432 -1.66310 662 ft 3 kts 77°
2026-05-01 12:50 53.86454 -1.66265 662 ft 6 kts 47°
2026-05-01 12:50 53.86486 -1.66208 663 ft 10 kts 46°
2026-05-01 12:51 53.86541 -1.66105 663 ft 11 kts 48°
2026-05-01 12:51 53.86587 -1.66058 664 ft 6 kts 345°
2026-05-01 12:51 53.86672 -1.66183 662 ft 10 kts 317°
2026-05-01 12:52 53.86683 -1.66200 663 ft 10 kts 317°
2026-05-01 12:52 53.86734 -1.66279 664 ft 14 kts 317°
2026-05-01 12:52 53.86814 -1.66402 664 ft 15 kts 318°
2026-05-01 12:53 53.86989 -1.66669 671 ft 18 kts 318°
2026-05-01 12:53 53.87075 -1.66801 677 ft 19 kts 317°
2026-05-01 12:53 53.87178 -1.66959 683 ft 18 kts 317°
2026-05-01 12:54 53.87264 -1.67092 684 ft 15 kts 315°
2026-05-01 12:54 53.87310 -1.67164 682 ft 3 kts 133°
2026-05-01 12:54 53.87303 -1.67152 683 ft 0 kts 136°
2026-05-01 12:56 53.87066 -1.66789 676 ft 105 kts 138°
2026-05-01 12:56 53.86376 -1.65717 909 ft 146 kts 138°
2026-05-01 12:56 53.85604 -1.64511 1602 ft 159 kts 137°
2026-05-01 12:57 53.84744 -1.63208 2371 ft 168 kts 141°
2026-05-01 12:57 53.82834 -1.60516 3686 ft 201 kts 152°
2026-05-01 12:57 53.81382 -1.60020 4077 ft 232 kts 187°
2026-05-01 12:58 53.79856 -1.61296 4603 ft 260 kts 224°
2026-05-01 12:58 53.79059 -1.63938 5993 ft 253 kts 251°
2026-05-01 12:58 53.78756 -1.66923 6965 ft 262 kts 260°
2026-05-01 12:59 53.78229 -1.73133 9090 ft 272 kts 256°
2026-05-01 12:59 53.77874 -1.76305 10111 ft 278 kts 256°
2026-05-01 12:59 53.77178 -1.83158 10897 ft 324 kts 256°
2026-05-01 13:00 53.76373 -1.91090 12025 ft 347 kts 256°
2026-05-01 13:00 53.76093 -1.93810 12561 ft 350 kts 256°
2026-05-01 13:01 53.75620 -1.98372 13410 ft 356 kts 256°
2026-05-01 13:01 53.75212 -2.02351 14073 ft 326 kts 256°
2026-05-01 13:01 53.73244 -2.09205 13997 ft 350 kts 222°
2026-05-01 13:02 53.71221 -2.11460 14693 ft 346 kts 203°
2026-05-01 13:07 53.20286 -2.21663 29268 ft 405 kts 171°
2026-05-01 13:07 53.17495 -2.20832 29876 ft 409 kts 171°
2026-05-01 13:07 53.14669 -2.20194 30381 ft 413 kts 177°
2026-05-01 13:08 53.11828 -2.20284 30897 ft 414 kts 185°
2026-05-01 13:08 53.08952 -2.20759 31410 ft 418 kts 186°
2026-05-01 13:08 53.06059 -2.21203 31898 ft 421 kts 185°
2026-05-01 13:08 53.03121 -2.21125 32675 ft 414 kts 175°
2026-05-01 13:09 53.00336 -2.20415 33803 ft 404 kts 169°
2026-05-01 13:09 52.97589 -2.18993 34141 ft 414 kts 160°
2026-05-01 13:09 52.95012 -2.16968 34617 ft 417 kts 154°
2026-05-01 13:09 52.92437 -2.14711 35078 ft 420 kts 154°
2026-05-01 13:10 52.89837 -2.12476 35513 ft 423 kts 154°
2026-05-01 13:10 52.87211 -2.10229 35953 ft 426 kts 154°
2026-05-01 13:10 52.84571 -2.07951 36372 ft 430 kts 154°
2026-05-01 13:10 52.81914 -2.05654 36789 ft 433 kts 154°
2026-05-01 13:11 52.79233 -2.03351 37199 ft 436 kts 154°
2026-05-01 13:11 52.76529 -2.01038 37654 ft 438 kts 154°
2026-05-01 13:11 52.73833 -1.98728 38311 ft 435 kts 154°
2026-05-01 13:11 52.71151 -1.96430 38883 ft 434 kts 154°
2026-05-01 13:12 52.68472 -1.94140 39303 ft 435 kts 154°
2026-05-01 13:12 52.65774 -1.91841 39692 ft 437 kts 154°
2026-05-01 13:12 52.63077 -1.89544 40088 ft 438 kts 154°
2026-05-01 13:12 52.60363 -1.87234 40506 ft 439 kts 154°
2026-05-01 13:13 52.57649 -1.84928 40906 ft 440 kts 154°
2026-05-01 13:13 52.54920 -1.82614 41175 ft 445 kts 154°
2026-05-01 13:13 52.52121 -1.80245 41152 ft 457 kts 154°
2026-05-01 13:14 52.46340 -1.75357 41166 ft 477 kts 154°
2026-05-01 13:14 52.40339 -1.70300 41168 ft 492 kts 154°
2026-05-01 13:15 52.34194 -1.65136 41161 ft 498 kts 154°
2026-05-01 13:15 52.28032 -1.59975 41156 ft 498 kts 154°
2026-05-01 13:16 52.21865 -1.54803 41155 ft 499 kts 153°
2026-05-01 13:16 52.16356 -1.47927 41147 ft 503 kts 135°
2026-05-01 13:17 52.10805 -1.33926 41173 ft 509 kts 118°
2026-05-01 13:17 52.09244 -1.28757 41169 ft 509 kts 118°
2026-05-01 13:18 52.03943 -1.13873 41149 ft 507 kts 122°
2026-05-01 13:18 51.99558 -1.05002 41125 ft 504 kts 136°
2026-05-01 13:19 51.97107 -1.01114 41135 ft 474 kts 137°
2026-05-01 13:19 51.94824 -0.97435 41115 ft 456 kts 136°
2026-05-01 13:20 51.88239 -0.86333 41134 ft 456 kts 136°
2026-05-01 13:20 51.83728 -0.78911 41132 ft 473 kts 136°
2026-05-01 13:21 51.79047 -0.71131 41150 ft 491 kts 136°
2026-05-01 13:21 51.76634 -0.67180 41153 ft 498 kts 136°
2026-05-01 13:21 51.71907 -0.59405 41158 ft 505 kts 136°
2026-05-01 13:22 51.66992 -0.51348 41160 ft 504 kts 136°
2026-05-01 13:22 51.62063 -0.43307 41161 ft 504 kts 136°
2026-05-01 13:23 51.57152 -0.35308 41157 ft 504 kts 136°
2026-05-01 13:23 51.52248 -0.27357 41156 ft 504 kts 136°
2026-05-01 13:24 51.47506 -0.19686 41146 ft 503 kts 136°
2026-05-01 13:25 51.40131 -0.07809 41177 ft 503 kts 136°
2026-05-01 13:25 51.35517 0.00155 41169 ft 505 kts 128°
2026-05-01 13:26 51.32217 0.10085 41175 ft 510 kts 111°
2026-05-01 13:26 51.31472 0.14189 41174 ft 511 kts 105°
2026-05-01 13:27 51.30340 0.25296 41192 ft 513 kts 99°
2026-05-01 13:27 51.28300 0.42106 41085 ft 511 kts 105°
2026-05-01 13:28 51.26320 0.58795 41096 ft 511 kts 103°
2026-05-01 13:29 51.23459 0.81011 41144 ft 511 kts 103°
2026-05-01 13:31 51.19118 1.14288 41203 ft 510 kts 103°
2026-05-01 13:32 51.15913 1.42079 41202 ft 512 kts 95°
2026-05-01 13:33 51.14585 1.70350 41208 ft 512 kts 95°
2026-05-01 13:34 51.13439 1.92916 41210 ft 511 kts 96°
2026-05-01 13:35 51.12557 2.09818 41209 ft 510 kts 96°
2026-05-01 13:36 51.11653 2.26611 41204 ft 510 kts 96°
2026-05-01 13:36 51.10715 2.43462 41199 ft 510 kts 96°
2026-05-01 13:37 51.10076 2.54727 41198 ft 511 kts 96°
2026-05-01 13:37 51.09310 2.65957 41184 ft 511 kts 102°
2026-05-01 13:38 51.06344 2.82150 41215 ft 509 kts 107°
2026-05-01 13:39 51.04467 2.93007 41212 ft 509 kts 107°
2026-05-01 13:39 51.02437 3.03764 41211 ft 508 kts 108°
2026-05-01 13:40 51.00483 3.14561 41214 ft 508 kts 107°
2026-05-01 13:40 50.98486 3.25247 41205 ft 508 kts 108°
2026-05-01 13:41 50.96487 3.36007 41207 ft 508 kts 107°
2026-05-01 13:41 50.94480 3.46716 41202 ft 508 kts 108°
2026-05-01 13:42 50.92456 3.57441 41200 ft 508 kts 108°
2026-05-01 13:42 50.90426 3.68165 41207 ft 508 kts 108°
2026-05-01 13:43 50.88384 3.78859 41210 ft 508 kts 108°
2026-05-01 13:43 50.86334 3.89565 41216 ft 508 kts 108°
2026-05-01 13:44 50.84273 4.00247 41227 ft 508 kts 108°
2026-05-01 13:44 50.82202 4.10929 41234 ft 508 kts 108°
2026-05-01 13:45 50.80119 4.21608 41235 ft 508 kts 108°
2026-05-01 13:45 50.78029 4.32273 41237 ft 508 kts 108°
2026-05-01 13:46 50.75927 4.42932 41236 ft 508 kts 108°
2026-05-01 13:46 50.73816 4.53581 41238 ft 509 kts 108°
2026-05-01 13:47 50.71690 4.64243 41239 ft 509 kts 108°
2026-05-01 13:47 50.69555 4.74895 41239 ft 509 kts 108°
2026-05-01 13:48 50.67312 4.85483 41215 ft 510 kts 113°
2026-05-01 13:48 50.64372 4.93478 41234 ft 508 kts 128°
2026-05-01 13:49 50.59358 5.01213 41238 ft 507 kts 143°
2026-05-01 13:49 50.53554 5.07549 41259 ft 508 kts 146°
2026-05-01 13:50 50.47991 5.14395 41242 ft 509 kts 139°
2026-05-01 13:50 50.42580 5.21551 41240 ft 509 kts 143°
2026-05-01 13:51 50.36977 5.28340 41246 ft 509 kts 141°
2026-05-01 13:51 50.31518 5.35383 41249 ft 509 kts 142°
2026-05-01 13:52 50.25953 5.42208 41252 ft 509 kts 142°
2026-05-01 13:52 50.20443 5.49168 41257 ft 509 kts 142°
2026-05-01 13:53 50.14922 5.55976 41262 ft 510 kts 142°
2026-05-01 13:53 50.06604 5.66309 41263 ft 510 kts 142°
2026-05-01 13:54 50.01043 5.73152 41267 ft 510 kts 142°
2026-05-01 13:54 49.95482 5.80005 41267 ft 510 kts 142°
2026-05-01 13:55 49.89908 5.86832 41267 ft 511 kts 142°
2026-05-01 13:55 49.84334 5.93650 41271 ft 511 kts 142°
2026-05-01 13:56 49.78743 6.00463 41269 ft 511 kts 142°
2026-05-01 13:56 49.73145 6.07267 41265 ft 511 kts 142°
2026-05-01 13:57 49.67583 6.14005 41266 ft 512 kts 142°
2026-05-01 13:57 49.61978 6.20775 41265 ft 512 kts 142°
2026-05-01 13:58 49.56332 6.27575 41265 ft 512 kts 142°
2026-05-01 13:58 49.50713 6.34322 41262 ft 512 kts 142°
2026-05-01 13:59 49.44901 6.40518 41252 ft 512 kts 153°
2026-05-01 13:59 49.38372 6.44819 41274 ft 512 kts 159°
2026-05-01 14:00 49.31845 6.49230 41271 ft 512 kts 155°
2026-05-01 14:00 49.25344 6.53701 41279 ft 512 kts 158°
2026-05-01 14:01 49.18797 6.58050 41272 ft 513 kts 156°
2026-05-01 14:01 49.15564 6.60301 41145 ft 503 kts 156°
2026-05-01 14:01 49.12428 6.62412 40651 ft 484 kts 157°
2026-05-01 14:02 49.09387 6.64408 40176 ft 468 kts 157°
2026-05-01 14:02 49.06453 6.66369 39733 ft 452 kts 156°
2026-05-01 14:02 49.03615 6.68299 39291 ft 441 kts 156°
2026-05-01 14:02 49.00830 6.70174 38841 ft 436 kts 157°
2026-05-01 14:03 48.98040 6.71993 38376 ft 436 kts 159°
2026-05-01 14:03 48.95186 6.73673 37935 ft 443 kts 159°
2026-05-01 14:03 48.92295 6.75386 37497 ft 448 kts 159°
2026-05-01 14:03 48.89388 6.77123 37027 ft 450 kts 159°
2026-05-01 14:04 48.86475 6.78855 36572 ft 450 kts 159°
2026-05-01 14:04 48.83546 6.80584 36119 ft 451 kts 159°
2026-05-01 14:04 48.80621 6.82308 35654 ft 452 kts 159°
2026-05-01 14:04 48.77689 6.84042 35200 ft 452 kts 159°
2026-05-01 14:05 48.74755 6.85775 34737 ft 453 kts 159°
2026-05-01 14:05 48.71816 6.87505 34306 ft 453 kts 159°
2026-05-01 14:05 48.68878 6.89231 33842 ft 454 kts 159°
2026-05-01 14:05 48.65930 6.90962 33375 ft 456 kts 159°
2026-05-01 14:06 48.62970 6.92700 32915 ft 458 kts 159°
2026-05-01 14:06 48.59995 6.94443 32457 ft 460 kts 159°
2026-05-01 14:06 48.57011 6.96190 31990 ft 461 kts 159°
2026-05-01 14:06 48.54012 6.97942 31518 ft 463 kts 159°
2026-05-01 14:07 48.50998 6.99701 31054 ft 465 kts 158°
2026-05-01 14:07 48.47973 7.01466 30582 ft 466 kts 158°
2026-05-01 14:07 48.44956 7.03223 30072 ft 462 kts 158°
2026-05-01 14:08 48.39010 7.06678 29147 ft 455 kts 158°
2026-05-01 14:08 48.36067 7.08385 28690 ft 452 kts 158°
2026-05-01 14:08 48.33182 7.10056 28243 ft 449 kts 158°
2026-05-01 14:08 48.30271 7.11741 27788 ft 446 kts 158°
2026-05-01 14:09 48.27383 7.13410 27343 ft 443 kts 158°
2026-05-01 14:09 48.24514 7.15066 26898 ft 440 kts 158°
2026-05-01 14:09 48.21664 7.16709 26457 ft 438 kts 158°
2026-05-01 14:09 48.18831 7.18340 26012 ft 435 kts 158°
2026-05-01 14:10 48.16018 7.19958 25581 ft 432 kts 158°
2026-05-01 14:10 48.13217 7.21567 25143 ft 429 kts 158°
2026-05-01 14:10 48.10439 7.23162 24716 ft 427 kts 158°
2026-05-01 14:10 48.07674 7.24747 24290 ft 424 kts 158°
2026-05-01 14:11 48.04925 7.26320 23858 ft 422 kts 158°
2026-05-01 14:11 47.99482 7.29431 22967 ft 415 kts 158°
2026-05-01 14:11 47.96792 7.30966 22554 ft 413 kts 158°
2026-05-01 14:12 47.94123 7.32487 22142 ft 410 kts 158°
2026-05-01 14:12 47.91469 7.33998 21729 ft 406 kts 159°
2026-05-01 14:12 47.88836 7.35495 21319 ft 403 kts 159°
2026-05-01 14:12 47.86225 7.36979 20915 ft 401 kts 159°
2026-05-01 14:13 47.83633 7.38450 20512 ft 398 kts 159°
2026-05-01 14:13 47.81919 7.39422 20241 ft 396 kts 159°
2026-05-01 14:13 47.78484 7.41369 19704 ft 393 kts 159°
2026-05-01 14:13 47.75931 7.42813 19314 ft 391 kts 159°
2026-05-01 14:14 47.73394 7.44248 18929 ft 389 kts 159°
2026-05-01 14:14 47.70872 7.45672 18529 ft 386 kts 159°
2026-05-01 14:14 47.68374 7.47081 18108 ft 383 kts 159°
2026-05-01 14:14 47.65941 7.48536 17709 ft 381 kts 155°
2026-05-01 14:15 47.63821 7.50919 17278 ft 378 kts 134°
2026-05-01 14:15 47.62342 7.54133 16901 ft 379 kts 116°
2026-05-01 14:15 47.61428 7.57780 16588 ft 378 kts 109°
2026-05-01 14:15 47.60653 7.61196 16287 ft 375 kts 109°
2026-05-01 14:16 47.59814 7.64846 15980 ft 373 kts 110°
2026-05-01 14:16 47.58955 7.68461 15675 ft 371 kts 110°
2026-05-01 14:16 47.58100 7.72059 15367 ft 370 kts 110°
2026-05-01 14:16 47.57260 7.75642 15061 ft 367 kts 110°
2026-05-01 14:17 47.56437 7.79164 14638 ft 367 kts 110°
2026-05-01 14:17 47.55592 7.82750 14102 ft 362 kts 110°
2026-05-01 14:17 47.54774 7.86198 13528 ft 356 kts 110°
2026-05-01 14:17 47.53967 7.89612 12860 ft 338 kts 110°
2026-05-01 14:18 47.53208 7.92819 12211 ft 323 kts 110°
2026-05-01 14:18 47.52489 7.95852 11593 ft 312 kts 110°
2026-05-01 14:18 47.51780 7.98828 10970 ft 303 kts 110°
2026-05-01 14:18 47.51311 8.00796 10555 ft 297 kts 110°
2026-05-01 14:19 47.50417 8.04550 9903 ft 285 kts 110°
2026-05-01 14:19 47.49959 8.06474 9788 ft 273 kts 110°
2026-05-01 14:19 47.49340 8.09096 9610 ft 267 kts 110°
2026-05-01 14:20 47.49060 8.11803 9292 ft 272 kts 86°
2026-05-01 14:20 47.50978 8.16446 8783 ft 276 kts 33°
2026-05-01 14:20 47.52785 8.17351 8525 ft 277 kts
2026-05-01 14:21 47.54687 8.17047 8323 ft 275 kts 348°
2026-05-01 14:21 47.56561 8.16397 8079 ft 277 kts 347°
2026-05-01 14:21 47.58432 8.15739 7799 ft 275 kts 347°
2026-05-01 14:22 47.62126 8.15575 7133 ft 265 kts 23°
2026-05-01 14:22 47.63571 8.17095 6908 ft 249 kts 45°
2026-05-01 14:22 47.64722 8.18941 6729 ft 242 kts 48°
2026-05-01 14:22 47.65863 8.20772 6500 ft 242 kts 47°
2026-05-01 14:23 47.66967 8.22611 6242 ft 234 kts 53°
2026-05-01 14:23 47.67483 8.24816 5939 ft 225 kts 85°
2026-05-01 14:23 47.67211 8.27037 5730 ft 218 kts 114°
2026-05-01 14:23 47.66298 8.28792 5545 ft 215 kts 135°
2026-05-01 14:24 47.65202 8.30287 5403 ft 214 kts 137°
2026-05-01 14:24 47.64101 8.31798 5204 ft 215 kts 136°
2026-05-01 14:24 47.63019 8.33281 4987 ft 208 kts 136°
2026-05-01 14:24 47.61975 8.34711 4781 ft 199 kts 136°
2026-05-01 14:25 47.60975 8.36081 4581 ft 194 kts 136°
2026-05-01 14:25 47.60004 8.37423 4382 ft 188 kts 136°
2026-05-01 14:25 47.59077 8.38699 4206 ft 177 kts 136°
2026-05-01 14:25 47.58194 8.39908 4050 ft 167 kts 136°
2026-05-01 14:26 47.57336 8.41087 3861 ft 172 kts 135°
2026-05-01 14:26 47.55606 8.43473 3424 ft 175 kts 135°
2026-05-01 14:26 47.54716 8.44695 3200 ft 174 kts 135°
2026-05-01 14:27 47.53961 8.45728 2984 ft 153 kts 135°
2026-05-01 14:27 47.53202 8.46762 2786 ft 136 kts 135°
2026-05-01 14:27 47.52535 8.47678 2610 ft 128 kts 136°
2026-05-01 14:28 47.51278 8.49408 2270 ft 122 kts 134°
2026-05-01 14:28 47.50661 8.50257 2130 ft 125 kts 133°
2026-05-01 14:28 47.50014 8.51145 1970 ft 129 kts 134°
2026-05-01 14:28 47.49348 8.52036 1776 ft 128 kts 133°
2026-05-01 14:29 47.48705 8.52914 1589 ft 124 kts 132°
2026-05-01 14:29 47.48074 8.53788 1421 ft 124 kts 133°
2026-05-01 14:30 47.46778 8.55556 1390 ft 34 kts 140°
2026-05-01 14:30 47.46579 8.55689 1395 ft 24 kts 164°
2026-05-01 14:30 47.46460 8.55725 1396 ft 12 kts 167°
2026-05-01 14:31 47.46364 8.55783 1399 ft 5 kts 138°
2026-05-01 14:31 47.46337 8.55820 1396 ft 7 kts 137°
2026-05-01 14:31 47.46287 8.55888 1398 ft 13 kts 137°
2026-05-01 14:31 47.46221 8.55977 1405 ft 11 kts 136°
2026-05-01 14:32 47.46156 8.56000 1403 ft 10 kts 186°
2026-05-01 14:32 47.46105 8.55992 1403 ft 11 kts 186°
2026-05-01 14:32 47.45990 8.55975 1403 ft 13 kts 186°
2026-05-01 14:32 47.45905 8.55937 1404 ft 12 kts 199°
2026-05-01 14:33 47.45852 8.55875 1405 ft 9 kts 249°
2026-05-01 14:33 47.45857 8.55765 1404 ft 12 kts 276°
2026-05-01 14:33 47.45867 8.55619 1402 ft 16 kts 275°
2026-05-01 14:33 47.45879 8.55432 1402 ft 21 kts 275°
2026-05-01 14:34 47.45891 8.55265 1398 ft 13 kts 277°
2026-05-01 14:34 47.45901 8.55133 1393 ft 12 kts 267°
2026-05-01 14:34 47.45840 8.55069 1388 ft 12 kts 176°
2026-05-01 14:34 47.45764 8.55116 1390 ft 12 kts 154°
2026-05-01 14:35 47.45687 8.55171 1392 ft 12 kts 154°
2026-05-01 14:35 47.45606 8.55230 1394 ft 13 kts 155°
2026-05-01 14:35 47.45527 8.55284 1398 ft 13 kts 155°
2026-05-01 14:35 47.45441 8.55343 1396 ft 14 kts 155°
2026-05-01 14:36 47.45354 8.55403 1404 ft 13 kts 155°
2026-05-01 14:36 47.45275 8.55457 1398 ft 12 kts 154°
2026-05-01 14:36 47.45190 8.55516 1399 ft 14 kts 158°
2026-05-01 14:36 47.45091 8.55583 1402 ft 16 kts 155°
2026-05-01 14:37 47.44994 8.55649 1398 ft 12 kts 162°
2026-05-01 14:37 47.44953 8.55629 1393 ft 10 kts 227°
2026-05-01 14:37 47.44923 8.55534 1396 ft 11 kts 245°
2026-05-01 14:37 47.44888 8.55420 1389 ft 14 kts 244°
2026-05-01 14:38 47.44847 8.55293 1388 ft 12 kts 245°
2026-05-01 14:38 47.44809 8.55172 1384 ft 9 kts 244°
2026-05-01 14:38 47.44780 8.55080 1383 ft 4 kts 251°
2026-05-01 14:38 47.44786 8.55064 1385 ft 2 kts 331°
2026-05-01 14:39 47.44819 8.55043 1384 ft 7 kts 334°
2026-05-01 14:39 47.44854 8.55019 1384 ft 4 kts 335°
2026-05-01 14:39 47.44859 8.55015 1386 ft 0 kts 334°